Regional Weather Roundup
Issued by NWS

Home | Current Version | Previous Version | Graphics & Text | Print | Product List | Glossary On
Versions: 1 2 3 4 5 6 7 8 9 10 11 12 13 14 15 16 17 18 19 20 21 22 23 24 25 26 27 28 29 30 31 32 33 34 35 36 37 38 39 40 41 42 43 44 45 46 47 48 49 50
000
ASUS43 KDTX 232210
RWRMI
MICHIGAN HOURLY REGIONAL WEATHER ROUNDUP
NATIONAL WEATHER SERVICE DETROIT/PONTIAC MI
ISSUED BY NATIONAL WEATHER SERVICE GRAND RAPIDS MI
600 PM EDT WED AUG 23 2017

NOTE: "FAIR" INDICATES FEW OR NO CLOUDS BELOW 12,000 FEET WITH NO
SIGNIFICANT WEATHER AND/OR OBSTRUCTION TO VISIBILITY.

MIZ047>049-052>055-059>063-066>070-074>076-081>083-232300-
SOUTHEAST LOWER MICHIGAN

CITY           SKY/WX    TMP DP  RH WIND       PRES   REMARKS
ADRIAN         MOSUNNY   75  48  38 NW13G18   29.96S
ALMA           MOSUNNY   71  45  39 NW13G24   29.97R
ANN ARBOR      PTSUNNY   73  50  44 W8        29.95S
BAD AXE        SUNNY     69  47  46 NW8       29.95S
DETROIT CITY   PTSUNNY   74  49  41 NW9       29.94S
DETROIT        MOSUNNY   75  50  41 NW10      29.94S
FLINT          MOSUNNY   69  53  56 W12G17    29.96R
GROSSE ILE     SUNNY     76  48  37 NW10G16   29.93S
HILLSDALE      PTSUNNY   72  46  40 NW15      29.98R
HOWELL         MOSUNNY   71  51  48 NW7       29.96S

CITY           SKY/WX    TMP DP  RH WIND       PRES   REMARKS
JACKSON        SUNNY     73  50  44 W10       29.97R
LANSING        MOSUNNY   73  48  41 NW12      29.97S
MASON          PTSUNNY   73  51  44 NW8       29.97R
MONROE         PTSUNNY   74  53  47 NW6       29.94S
MT. CLEMENS    PTSUNNY   70  54  56 N8        29.94R
PONTIAC        CLOUDY    70  52  52 NW10      29.95R
PORT HOPE        N/A     66  56  70 NE15      29.94R
PORT HURON     CLOUDY    70  50  49 NW3       29.94S
TRI CITIES     MOSUNNY   70  52  52 N12       29.96S
YPSILANTI      MOSUNNY   77  50  38 NW9       29.95S
$$
MIZ043>046-050>051-056>058-064>065-071>073-077>080-232300-
SOUTHWEST LOWER MICHIGAN

CITY           SKY/WX    TMP DP  RH WIND       PRES   REMARKS
BATTLE CREEK   MOSUNNY   70  51  51 NW15      30.00S
BENTON HARBOR  SUNNY     70  51  51 NW9       30.02S
BIG RAPIDS     SUNNY     65  45  47 NW12G23   30.00S
COLDWATER      MOSUNNY   72  46  39 NW12      29.99S
HOLLAND        SUNNY     69  53  56 NW8       30.02S
GRAND RAPIDS   MOSUNNY   70  51  51 NW14      29.99R
KALAMAZOO      SUNNY     71  46  40 NW15G23   30.01R
MARSHALL       SUNNY     72  49  43 W12G17    29.98R
MOUNT PLEASANT SUNNY     71  48  44 NW8       29.97R
MUSKEGON       MOSUNNY   71  51  49 NW9       30.01S
STURGIS        SUNNY     70  51  50 NW9G17    30.00S
$$
MIZ016>042-232300-
NORTHERN LOWER MICHIGAN

CITY           SKY/WX    TMP DP  RH WIND       PRES   REMARKS
ALPENA         CLOUDY    63  51  65 W8        29.96
BEAVER ISLAND  SUNNY     63  48  58 NW9       30.01R
BELLAIRE       PTSUNNY   64  46  53 NW6       30.00S
CADILLAC       SUNNY     67  42  40 NW10      30.00S
CHARLEVOIX     SUNNY     63  48  59 NW10G16   30.03S
GAYLORD        MOSUNNY   59  46  62 VRB6      30.00R
HOUGHTON LAKE  MOSUNNY   65  47  52 N13       30.00R
MANISTEE       SUNNY     67  49  52 N9        30.01S
OSCODA         PTSUNNY   68  47  47 NW8       29.94R
PELLSTON       PTSUNNY   62  49  62 NW16      30.00R
TRAVERSE CITY  MOSUNNY   66  49  54 N7        29.99S
LUDINGTON      MOSUNNY   66  49  55 NW7       30.01S
$$
MIZ007>008-015-232300-
EASTERN UPPER MICHIGAN

CITY           SKY/WX    TMP DP  RH WIND       PRES   REMARKS
KINROSS        CLOUDY    56  49  77 NW16G23   29.98S
MACKINAC ISLAN CLOUDY    60  50  69 NW9       29.98S
NEWBERRY       MOSUNNY   57  45  64 NW12      30.00S
S. S. MARIE    CLOUDY    58  50  75 NW14G21   29.97R
$$
MIZ004>006-011>014-085-232300-
CENTRAL UPPER MICHIGAN

CITY           SKY/WX    TMP DP  RH WIND       PRES   REMARKS
MANISTIQUE     SUNNY     61  40  45 N9G17     30.01R
ESCANABA       MOSUNNY   67  45  45 N9        30.00R
MENOMINEE      MOSUNNY   70  47  43 N9        30.00S
SAWYER-GWINN   MOSUNNY   57  45  62 N16       30.03S
$$
MIZ001>003-009>011-084-232300-
WESTERN UPPER MICHIGAN

CITY           SKY/WX    TMP DP  RH WIND       PRES   REMARKS
IRON MOUNTAIN  SUNNY     67  41  38 N13       30.01S
HOUGHTON       MOSUNNY   58  39  49 NW7       30.05R
COPPER HARBOR    N/A     59  46  62 N13       30.04S
IRONWOOD       MOSUNNY   59  41  51 NW5       30.08F
$$

ABBREVIATIONS USED IN REMARKS
   TC - TEMPERATURE IN CELSIUS
  WCI - WIND CHILL INDEX
   HX - HEAT INDEX
  VSB - VISIBILITY





USA.gov is the U.S. government's official web portal to all federal, state and local government web resources and services.